Weather History for Fort Myers, FL

Change the Weather History Date:

Saturday, August 24, 2013

  Actual Average Record
Temperature  
Mean Temperature 84 °F 83 °F  
Max Temperature 93 °F 92 °F 97 °F (1942)
Min Temperature 75 °F 75 °F 65 °F (1957)
Degree Days  
Heating Degree Days 0 0  
Month to date heating degree days 0 0  
Since 1 June heating degree days 0 0  
Since 1 July heating degree days 0 0  
Cooling Degree Days 19 18  
Month to date cooling degree days 437 432  
Year to date cooling degree days 2602 2587  
Since 1 June cooling degree days 1464 1521  
Growing Degree Days 33 (Base 50)    
Moisture  
Dew Point 73 °F    
Average Humidity 84    
Maximum Humidity 100    
Minimum Humidity 52    
Precipitation  
Precipitation 0.53 in 0.34 in 7.47 in (1913)
Month to date precipitation 7.24 7.80  
Year to date precipitation 37.78 38.73  
Sea Level Pressure  
Sea Level Pressure 30.05 in    
Wind  
Wind Speed 5 mph (ESE)    
Max Wind Speed 20 mph    
Max Gust Speed 28 mph    
Visibility 8 miles    
Events Rain , Thunderstorm    
T = Trace of Precipitation, MM = Missing Value Source: NWS Daily Summary

Daily Weather History Graph

Daily Weather History Graph

Search for Another Location

Airport:

Trip Planner

Search our weather history database for the weather conditions in past years. The results will help you decide how hot, cold, wet, or windy it might be!

Date:

Astronomy

Aug. 24, 2013 Rise Set
Actual Time 7:03 AM EDT 7:55 PM EDT
Civil Twilight 6:39 AM EDT 8:19 PM EDT
Nautical Twilight 6:11 AM EDT 8:47 PM EDT
Astronomical Twilight 5:43 AM EDT 9:15 PM EDT
Moon 10:19 PM EDT (8/24) 10:33 AM EDT (8/24)
Length of Visible Light 13h 39m
Length of Day
12h 51m
Waning Gibbous, 84% of the Moon is Illuminated
Aug 24
Waning Gibbous
Aug 28
Last Quarter
Sep 5
New
Sep 12
First Quarter
Sep 19
Full

Hourly Weather History & Observations

Time (EDT) Temp. Heat Index Dew Point Humidity Pressure Visibility Wind Dir Wind Speed Gust Speed Precip Events Conditions
12:53 AM 77.0 °F - 75.0 °F 94% 30.02 in 10.0 mi Calm Calm - N/A   Clear
1:53 AM 77.0 °F - 75.0 °F 94% 30.02 in 10.0 mi East 4.6 mph - N/A   Clear
2:53 AM 75.9 °F - 75.0 °F 97% 30.01 in 10.0 mi ESE 3.5 mph - N/A   Clear
3:53 AM 75.9 °F - 75.0 °F 97% 30.00 in 10.0 mi Calm Calm - N/A   Clear
4:53 AM 75.9 °F - 75.0 °F 97% 29.99 in 10.0 mi ENE 3.5 mph - N/A   Clear
5:53 AM 75.9 °F - 75.0 °F 97% 30.01 in 10.0 mi Calm Calm - N/A   Clear
6:53 AM 75.9 °F - 75.0 °F 97% 30.02 in 10.0 mi ENE 4.6 mph - N/A   Clear
7:53 AM 77.0 °F - 75.9 °F 96% 30.04 in 9.0 mi East 4.6 mph - N/A   Clear
8:53 AM 80.1 °F 85.8 °F 77.0 °F 90% 30.05 in 10.0 mi ESE 5.8 mph - N/A   Clear
9:53 AM 84.0 °F 93.7 °F 77.0 °F 79% 30.07 in 10.0 mi SE 5.8 mph - N/A   Clear
10:53 AM 86.0 °F 95.1 °F 75.0 °F 70% 30.09 in 10.0 mi Variable 3.5 mph - N/A   Partly Cloudy
11:53 AM 86.0 °F 92.2 °F 72.0 °F 63% 30.08 in 10.0 mi Calm Calm - N/A   Partly Cloudy
12:53 PM 89.1 °F 97.0 °F 73.0 °F 59% 30.07 in 10.0 mi SW 3.5 mph - N/A   Scattered Clouds
1:53 PM 91.0 °F 98.2 °F 72.0 °F 53% 30.05 in 10.0 mi Calm Calm - N/A   Clear
2:28 PM 91.4 °F 98.4 °F 71.6 °F 52% 30.03 in 10.0 mi Variable 5.8 mph - N/A Thunderstorm Clear
2:43 PM 91.4 °F 96.8 °F 69.8 °F 49% 30.03 in 10.0 mi Calm Calm - N/A   Clear
2:53 PM 91.0 °F 98.2 °F 72.0 °F 53% 30.04 in 10.0 mi ESE 5.8 mph - N/A   Scattered Clouds
3:53 PM 91.0 °F 98.2 °F 72.0 °F 53% 30.01 in 10.0 mi East 5.8 mph - N/A   Mostly Cloudy
4:53 PM 91.9 °F 98.4 °F 71.1 °F 50% 30.00 in 10.0 mi NE 5.8 mph - N/A Thunderstorm Mostly Cloudy
5:50 PM 77.0 °F - 71.6 °F 83% 30.02 in 4.0 mi South 15.0 mph 27.6 mph 0.00 in Rain , Thunderstorm Light Thunderstorms and Rain
5:53 PM 75.9 °F - 73.0 °F 91% 30.03 in 3.0 mi SSW 13.8 mph 23.0 mph 0.00 in Rain , Thunderstorm Light Thunderstorms and Rain
6:01 PM 75.2 °F - 71.6 °F 89% 30.01 in 1.8 mi SSE 11.5 mph 16.1 mph 0.02 in Rain , Thunderstorm Heavy Thunderstorms and Rain
6:15 PM 75.2 °F - 71.6 °F 89% 30.01 in 0.8 mi WSW 10.4 mph - 0.16 in Rain , Thunderstorm Heavy Thunderstorms and Rain
6:23 PM 75.2 °F - 71.6 °F 89% 30.02 in 1.8 mi SSW 3.5 mph - 0.19 in Rain , Thunderstorm Thunderstorms and Rain
6:29 PM 75.2 °F - 71.6 °F 89% 30.02 in 3.0 mi Calm Calm - 0.20 in Rain , Thunderstorm Light Thunderstorms and Rain
6:40 PM 75.2 °F - 71.6 °F 89% 30.03 in 6.0 mi SW 4.6 mph - 0.20 in Rain , Thunderstorm Light Rain
6:53 PM 75.9 °F - 73.9 °F 94% 30.02 in 8.0 mi SSW 4.6 mph - 0.20 in Rain , Thunderstorm Light Rain
7:44 PM 75.2 °F - 73.4 °F 94% 30.06 in 1.8 mi East 4.6 mph - 0.05 in Rain , Thunderstorm Heavy Rain
7:53 PM 75.0 °F - 73.0 °F 94% 30.06 in 2.5 mi ESE 8.1 mph - 0.20 in Rain , Thunderstorm Light Rain
7:56 PM 75.2 °F - 73.4 °F 94% 30.06 in 6.0 mi ESE 5.8 mph - 0.00 in Rain Light Rain
8:04 PM 75.2 °F - 73.4 °F 94% 30.06 in 8.0 mi ESE 6.9 mph - 0.02 in Rain Light Rain
8:53 PM 75.9 °F - 73.0 °F 91% 30.10 in 10.0 mi ENE 3.5 mph - 0.03 in   Overcast
9:53 PM 75.9 °F - 73.9 °F 94% 30.12 in 10.0 mi ENE 5.8 mph - N/A   Mostly Cloudy
10:20 PM 75.2 °F - 73.4 °F 94% 30.13 in 10.0 mi ENE 6.9 mph - N/A   Overcast
10:29 PM 75.2 °F - 73.4 °F 94% 30.13 in 10.0 mi NE 6.9 mph - N/A Thunderstorm Overcast
10:53 PM 75.0 °F - 73.9 °F 96% 30.14 in 8.0 mi ENE 6.9 mph - 0.01 in Rain , Thunderstorm Light Thunderstorms and Rain
11:09 PM 75.2 °F - 73.4 °F 94% 30.13 in 9.0 mi ESE 3.5 mph - 0.01 in Rain , Thunderstorm Light Rain
11:38 PM 75.2 °F - 73.4 °F 94% 30.10 in 6.0 mi Calm Calm - 0.05 in Rain Light Rain
11:53 PM 75.0 °F - 73.9 °F 96% 30.10 in 9.0 mi SE 4.6 mph - 0.07 in Rain Light Rain